Location: ??????
(55.7440°N, 38.5800°E)
Time: 22:56:14
(UTC+00:00)

Daily predictions for brighter satellites

Satellite Brightness Start Highest point End
(mag) Time Altitude Azimuth Time Altitude Azimuth Time Altitude Azimuth
NOSS 3-1 (C) 3.7 16:01:03 10° WSW 16:06:49 76° NW 16:13:47 10° NE
Iridium 4 Rocket 3.5 16:05:21 10° S 16:10:20 75° E 16:15:51 10° N
Sich 1 Rocket 4.2 16:09:58 10° SSE 16:14:03 35° E 16:18:11 10° NNE
Cosmos 1743 3.1 16:10:24 10° SSW 16:14:14 69° WNW 16:18:03 10° N
SJ-6B 3.5 16:12:10 10° SE 16:15:33 33° ENE 16:18:58 10° N
NOSS 2-3 (E) 4.0 16:11:43 10° SW 16:16:13 85° NW 16:21:52 10° NE
Cosmos 2263 Rocket 2.4 16:11:02 10° S 16:16:20 47° ESE 16:21:40 10° NE
ATLAS CENTAUR R/B 2.1 16:15:00 10° WSW 16:18:47 50° NNW 16:22:26 10° NE
Meteor 2-9 Rocket 4.3 16:13:32 10° S 16:19:17 62° E 16:25:00 10° NNE
Cosmos 1464 Rocket 4.4 16:17:54 10° SSE 16:23:31 40° E 16:29:14 10° NNE
Cosmos 1844 Rocket 4.1 16:21:13 10° SE 16:24:21 15° E 16:27:31 10° ENE
SL-08 RB Rocket 3.8 16:20:12 10° SSE 16:24:43 60° ENE 16:29:14 10° N
CZ-2C R/B 3.6 16:19:36 10° S 16:24:52 70° WSW 16:30:29 10° NNW
ARIANE 5 R/B 4.4 16:22:53 10° E 16:25:34 16° NE 16:28:15 10° NNE
Cosmos 2227 4.3 16:20:01 10° SSW 16:25:37 57° ESE 16:31:14 10° NE
Cosmos 1943 4.0 16:21:02 10° NW 16:26:32 54° WSW 16:32:01 10° S
Cosmos 990 Rocket 3.9 16:21:49 10° SSW 16:26:55 68° ESE 16:32:03 10° NNE
SJ 16-02 1.6 16:25:17 10° SSW 16:29:40 75° WNW 16:34:05 10° NNE
IRS-1A Rocket 4.4 16:24:42 10° SSE 16:30:33 66° ENE 16:36:21 10° NNW
NOSS 3-2 (A) 4.0 16:23:23 10° NW 16:30:33 87° NE 16:38:47 10° SE
Okean 2 Rocket 3.7 16:30:17 10° SSE 16:34:23 36° E 16:38:29 10° NNE
NOSS 2-2 (C) 4.5 16:32:22 10° SSE 16:35:02 20° ESE 16:37:58 10° ENE
Ariane Rocket 3.0 16:32:19 10° SSE 16:37:21 69° ENE 16:42:26 10° NNW
Abrixas rocket 3.8 16:36:46 10° SSW 16:38:41 16° SSE 16:39:57 13° SE
Lacrosse 5 rocket 1.4 16:35:00 10° WSW 16:39:17 77° SSE 16:43:48 10° ENE
Cosmos 1833 Rocket 3.9 16:35:03 10° NNW 16:39:56 28° NNE 16:44:24 12° E
Cosmos 494 Rocket 4.4 16:35:51 10° NNW 16:40:58 48° NE 16:45:32 13° SE
Cosmos 2227 Rocket 3.8 16:37:01 10° WSW 16:42:15 37° NW 16:47:31 10° NNE
NOSS 2-3 (D) 4.2 16:37:59 10° WSW 16:42:30 69° NNW 16:48:12 10° NE
USA 116 3.5 16:40:23 10° NNE 16:43:40 76° WNW 16:47:15 10° SSW
Cosmos 1437 4.5 16:41:30 10° NNW 16:44:15 32° W 16:46:59 10° SSW
Resurs 1-3 4.1 16:43:10 11° SE 16:47:09 43° ENE 16:51:20 10° N
SPOT 3 Rocket 3.9 16:42:19 10° SE 16:47:11 45° ENE 16:52:06 10° N
Cosmos 1300 Rocket 3.9 16:43:45 10° SSE 16:47:56 45° E 16:52:11 10° NNE
MetOp-A 4.2 16:42:44 10° SSE 16:48:03 68° ENE 16:53:24 10° NNW
Cosmos 1891 Rocket 4.4 16:45:08 10° S 16:51:10 62° E 16:57:08 10° NNE
Cosmos 1867 4.4 16:46:20 10° NW 16:51:36 50° SW 16:56:51 10° SSE
USA 234 4.2 16:47:33 10° ENE 16:52:36 23° SE 16:57:38 10° S
Cosmos 1898 Rocket 3.5 16:48:37 10° SSW 16:53:49 87° WNW 16:59:03 10° NNE
Cosmos 1536 Rocket 3.5 16:54:43 10° N 16:59:10 72° ENE 17:03:37 10° SSE
Meteor 2-5 Rocket 4.1 16:55:52 10° N 17:01:16 47° ENE 17:05:36 16° SE
DMSP B5D2-2 4.3 16:58:19 10° NNE 17:03:26 47° E 17:08:31 10° S
Terra 3.8 17:01:26 11° ENE 17:03:27 14° NE 17:05:49 10° NNE
USA 229 DEB 4.3 16:57:57 10° WSW 17:04:33 59° NNW 17:11:37 10° NE
NOSS 3-2 (C) 4.0 16:57:25 10° NW 17:04:36 89° NE 17:11:17 17° SE
USA 229 4.3 16:58:02 10° WSW 17:04:39 59° NNW 17:11:43 10° NE
Cosmos 858 Rocket 4.5 17:01:51 10° SSW 17:07:06 90° ESE 17:12:21 10° NNE
Cosmos 1626 3.1 17:04:20 10° N 17:07:36 28° ENE 17:08:46 24° E
Exosat Rocket 4.4 17:04:19 10° SSE 17:08:40 25° ESE 17:12:46 10° NE
Nadezhda 4 Rocket 3.9 17:06:09 10° N 17:12:20 87° E 17:18:28 10° S
Cosmos 372 Rocket 4.0 17:08:08 10° S 17:13:17 58° ESE 17:18:25 10° NNE
Cosmos 1025 Rocket 3.4 17:09:04 10° NNW 17:13:26 68° W 17:17:47 10° S
Cosmos 1072 Rocket 4.5 17:07:48 10° S 17:14:04 87° E 17:20:29 10° NNE
Cosmos 2150 Rocket 4.4 17:10:11 10° S 17:15:14 42° ESE 17:20:22 10° NE
CREW DRAGON DEMO-1 DEB 3.6 17:12:32 10° WSW 17:15:21 36° S 17:16:06 30° SSE
Cosmos 2151 Rocket 3.6 17:11:05 10° S 17:15:29 60° E 17:19:56 10° NNE
NOSS 3-1 (A) 4.1 17:10:46 10° WSW 17:16:37 59° NNW 17:23:40 10° NE
Cosmos 2082 Rocket 3.4 17:14:39 10° NNW 17:19:37 30° NE 17:22:53 18° E
Cosmos 2034 Rocket 4.0 17:13:58 10° S 17:20:16 69° E 17:26:36 10° NNE
USA 186 3.3 17:18:31 10° SSW 17:21:27 37° W 17:24:32 10° NNW
MOS 1 Rocket 3.7 17:17:37 10° N 17:22:10 61° WNW 17:26:29 10° SSW
Cosmos 1937 Rocket 3.8 17:18:24 10° SW 17:23:39 72° WNW 17:28:53 10° NNE
SPOT 5 4.4 17:21:41 20° E 17:23:44 25° NE 17:28:00 10° N
Cosmos 1125 Rocket 4.0 17:21:37 10° S 17:26:26 36° ESE 17:31:17 10° NE
Cosmos 1805 3.7 17:25:30 31° SE 17:26:32 38° E 17:30:12 10° NNE
COSMOS 2406 3.6 17:21:39 10° NNW 17:27:13 51° NE 17:30:13 26° ESE
NOSS 8 (H) 4.0 17:25:26 10° SW 17:28:28 86° SE 17:30:29 20° NE
NOSS 8 (E) 4.5 17:25:34 10° WSW 17:28:35 64° NW 17:31:17 13° NE
Meteor 1-24 Rocket 3.8 17:23:27 10° N 17:28:49 56° ENE 17:31:59 25° SE
Cosmos 2297 Rocket 4.4 17:25:34 10° WNW 17:30:07 24° NNW 17:34:41 10° NNE
OBJECT-B 1.0 17:28:11 22° S 17:30:07 71° WSW 17:33:24 10° NNW
NOSS 2-2 (E) 3.2 17:28:24 10° SW 17:31:58 63° SE 17:36:16 10° NE
Cosmos 1674 2.7 17:28:30 10° NNW 17:32:23 80° W 17:34:52 21° S
FREGAT/IRIS 4.3 17:34:35 12° SSW 17:36:36 27° W 17:38:54 10° NW
ATLAS 2AS CENTAUR R/B 3.9 17:37:35 24° ESE 17:37:35 24° ESE 17:43:27 10° ENE
ERS-1 Rocket 3.9 17:37:24 26° E 17:38:57 32° ENE 17:43:23 10° N
SL-14 R/B 3.4 17:36:01 10° N 17:39:50 52° ENE 17:40:43 42° ESE
CZ-2C R/B 2.7 17:34:50 10° NNE 17:40:22 89° WNW 17:45:58 10° SSW
NOSS 2-2 (D) 3.1 17:36:53 10° SW 17:40:24 60° SE 17:44:36 10° NE
H-2A R/B 4.3 17:38:14 10° SW 17:42:11 23° W 17:46:14 10° NW
Cosmos 1733 3.7 17:42:25 39° E 17:42:25 39° E 17:45:56 10° NNE
Resurs 01 Rocket 1.6 17:41:42 27° SSE 17:44:07 88° ENE 17:48:37 10° NNW
CENTAUR R/B 3.3 17:37:51 10° NW 17:45:36 71° SW 17:51:21 24° SSE
Lacrosse 4 Rocket 2.5 17:44:50 10° NNW 17:48:30 31° NNE 17:49:36 27° ENE
Landsat 7 4.0 17:46:54 37° SE 17:48:34 57° ENE 17:53:15 10° N
KORONAS-FOTON 4.4 17:45:51 10° NNW 17:49:43 56° W 17:52:09 21° S
Cosmos 909 Rocket 4.5 17:42:55 10° NW 17:49:50 57° NNE 17:53:07 28° E
SJ-6B 4.5 17:46:55 10° SSW 17:50:14 30° W 17:53:37 10° NNW
ATLAS 3B R/B 2.8 17:45:11 10° NW 17:51:58 73° NE 17:55:34 31° ESE
USA 238 DEB 4.5 17:46:13 10° NW 17:53:03 49° SW 17:58:10 19° SSE
USA 238 4.5 17:46:19 10° NW 17:53:10 50° SW 17:58:16 19° SSE
Cosmos 1634 Rocket 4.0 17:49:46 20° SSE 17:53:57 58° E 18:00:03 10° NNE
SPOT 1/Viking Rocket 3.7 17:53:07 37° ESE 17:54:55 56° ENE 17:59:59 10° N
Cosmos 1844 3.8 17:49:40 10° S 17:55:09 50° ESE 18:00:35 10° NE
Cosmos 2278 Rocket 4.3 17:58:55 11° ENE 17:58:55 11° ENE 17:59:24 10° ENE
ATLAS CENTAUR R/B 3.3 17:55:19 10° WNW 17:58:21 22° N 18:01:21 10° NE
Cosmos 2285 Rocket 4.0 17:52:20 10° S 17:58:29 56° ESE 18:04:41 10° NNE
Cosmos 1766 3.1 17:58:20 58° SE 17:58:49 65° E 18:02:45 10° NNE
Cosmos 1269 Rocket 4.0 17:53:27 10° NNW 17:58:49 86° WSW 18:01:04 36° SSE
Cosmos 2263 Rocket 3.2 17:54:57 10° WSW 18:00:19 47° NW 18:05:46 10° NNE
ARIANE 5 R/B 2.5 18:00:10 47° SSE 18:01:24 81° ENE 18:05:47 10° NNW
IGS 5A 3.4 18:00:40 54° SE 18:01:26 70° ENE 18:05:35 10° N
MetOp-B 4.1 17:59:48 32° SSE 18:02:22 88° ENE 18:07:46 10° NNW
Cosmos 1844 Rocket 2.5 18:01:44 10° SSW 18:07:16 70° ESE 18:12:52 10° NE
Cosmos 1455 Rocket 4.2 18:08:48 30° ENE 18:08:48 30° ENE 18:11:42 10° NNE
SJ 16-02 4.3 18:06:02 10° W 18:09:02 18° NW 18:12:02 10° N
Spot 2 Rocket 3.4 18:07:55 44° SSE 18:09:30 77° ENE 18:14:35 10° NNW
Cosmos 1092 Rocket 4.4 18:04:32 10° NNW 18:10:36 62° W 18:15:35 16° S
Okean 1 Rocket 3.2 18:14:13 26° SSW 18:16:46 77° WNW 18:21:18 10° N
Cosmos 2026 Rocket 4.2 18:11:56 10° NNW 18:18:15 70° W 18:22:22 23° S
Lacrosse 5 rocket 1.6 18:14:12 10° W 18:18:36 75° N 18:19:36 52° ENE
Cosmos 1340 Rocket 3.5 18:19:45 41° NE 18:19:45 41° NE 18:22:36 10° NNE
Meteor 1-15 Rocket 4.5 18:13:06 10° SSW 18:18:43 71° WNW 18:24:29 10° NNE
Meteor 2-19 Rocket 4.4 18:13:22 10° N 18:19:32 74° ENE 18:21:36 44° SSE
Cosmos 1833 Rocket 2.6 18:18:58 10° NNW 18:24:41 83° NE 18:26:05 53° SE
CZ-2C R/B 3.8 18:20:31 10° NNE 18:24:58 75° WNW 18:27:16 28° SSW
NOSS 2-2 (C) 3.4 18:21:21 10° WSW 18:25:00 72° NNW 18:28:17 17° NE
Cosmos 2298 Rocket 4.4 18:21:53 10° SW 18:27:12 64° WNW 18:32:32 10° NNE
Cosmos 1461 4.3 18:25:01 10° NW 18:29:27 36° NNE 18:30:43 31° NE
Cosmos 2251 Rocket 3.6 18:26:10 10° NNW 18:31:32 63° ENE 18:32:20 55° E
USA 234 3.2 18:31:49 19° ENE 18:36:37 57° SSE 18:43:03 10° SW
H-2A R/B 3.9 18:33:38 10° NNE 18:37:01 53° NE 18:37:01 53° NE
Cosmos 2279 Rocket 3.9 18:36:18 45° S 18:38:20 75° E 18:44:37 10° NNE
Cosmos 2142 Rocket 4.4 18:36:37 36° S 18:39:23 85° E 18:45:40 10° NNE
Terra 2.0 18:40:19 57° ENE 18:40:19 57° ENE 18:44:59 10° N
Cosmos 1892 Rocket 4.0 18:38:09 10° NNW 18:42:25 55° W 18:42:56 51° SW
Cosmos 1626 3.5 18:39:31 10° NNW 18:42:53 32° W 18:43:18 31° WSW
CARTOSAT-1 3.6 18:52:23 74° NW 18:52:23 74° NW 18:56:27 10° NNW
SPOT 5 2.9 19:00:55 75° SSW 19:01:17 80° WSW 19:06:38 10° NNW
NOSS 3-4 (A) 4.3 19:06:43 35° ENE 19:06:43 35° ENE 19:10:32 10° NE
NOSS 3-4 (C) 4.3 19:06:53 34° ENE 19:06:53 34° ENE 19:10:38 10° NE
Cosmos 2082 Rocket 2.0 18:58:44 10° NW 19:04:24 87° SW 19:04:43 80° SSE
Cosmos 1125 Rocket 4.3 19:03:14 10° SW 19:08:25 51° NW 19:13:37 10° NNE
Okean 1-7 Rocket 4.5 19:04:38 10° NNW 19:08:59 43° W 19:09:15 43° WSW
Exosat Rocket 4.1 19:04:36 10° SW 19:09:45 56° NW 19:14:46 10° NNE
COSMOS 2406 3.9 19:06:09 10° NW 19:11:29 42° WSW 19:12:17 40° SW
Cosmos 1726 4.4 19:19:59 20° NNE 19:19:59 20° NNE 19:21:13 10° NNE
SME Rocket 4.1 19:11:00 10° NNE 19:16:39 52° ENE 19:16:39 52° ENE
ERS-1 Rocket 3.3 19:17:24 55° WSW 19:17:34 55° W 19:22:32 10° NNW
Cosmos 2266 Rocket 3.9 19:14:11 10° NNW 19:20:14 71° W 19:21:01 63° SW
Cosmos 614 Rocket 4.1 19:15:50 10° NNW 19:20:34 68° NNE 19:20:34 68° NNE
Resurs 01 Rocket 4.1 19:19:16 12° WSW 19:21:16 16° W 19:23:59 10° NW
Cosmos 2098 Rocket 4.5 19:14:22 10° NNW 19:21:35 62° W 19:23:23 47° SW
Meteor 2-21 4.3 19:16:40 10° NNW 19:22:54 86° E 19:23:17 80° SE
Cosmos 1809 Rocket 4.3 19:17:34 10° NNW 19:23:48 85° W 19:24:19 76° SSW
Cosmos 1602 Rocket 4.3 19:19:53 10° NNW 19:23:13 50° NNW 19:23:13 50° NNW
Cosmos 1953 4.2 19:28:08 25° NNE 19:28:08 25° NNE 19:29:53 10° NNE
Cosmos 1655 Rocket 4.5 19:20:03 10° NNW 19:26:07 54° W 19:27:33 45° SW
Meteor 1-21 Rocket 4.4 19:20:40 10° NNW 19:26:20 65° W 19:26:43 63° WSW
ATLAS 2AS CENTAUR R/B 2.9 19:24:47 45° SSW 19:27:26 70° SE 19:35:12 10° NE
Lacrosse 4 Rocket 2.8 19:23:26 10° NW 19:25:54 34° WNW 19:25:54 34° WNW
Nadezhda 2 Rocket 4.3 19:31:06 10° N 19:37:13 78° ENE 19:37:13 78° ENE
ATLAS CENTAUR R/B 3.4 19:35:12 10° NW 19:37:32 22° N 19:37:32 22° N
Cosmos 2278 Rocket 2.8 19:40:44 47° NE 19:40:44 47° NE 19:44:44 10° NE
ATLAS 3B R/B 3.3 19:36:04 10° NW 19:42:27 43° WSW 19:42:49 43° SW
Cosmos 1455 Rocket 4.4 19:45:54 36° WNW 19:45:54 36° WNW 19:49:40 10° N
Meteor 2-10 4.4 19:48:52 66° WNW 19:48:52 66° WNW 19:54:09 10° N
Cosmos 909 Rocket 4.5 19:43:46 10° NW 19:50:00 49° WSW 19:50:00 49° WSW
NOSS 3-1 (C) 4.4 19:44:06 10° WNW 19:50:41 54° NNE 19:54:08 32° E
Cosmos 1844 Rocket 4.1 19:46:30 10° WSW 19:51:37 35° NW 19:56:46 10° NNE
Meteor 1-11 4.4 19:51:51 10° NNW 19:56:45 68° NNW 19:56:45 68° NNW
Lacrosse 5 rocket 3.5 19:53:26 10° WNW 19:55:13 24° WNW 19:55:13 24° WNW
Meteor 2-16 Rocket 4.5 20:00:30 10° NNW 20:06:18 72° WNW 20:06:18 72° WNW
Cosmos 1833 Rocket 4.3 20:03:36 10° NW 20:07:46 24° W 20:07:46 24° W
Cosmos 407 Rocket 4.3 20:06:13 10° NNW 20:09:56 47° NW 20:09:56 47° NW
Cosmos 1745 Rocket 4.1 20:06:35 10° N 20:12:07 65° NE 20:12:07 65° NE
Terra 3.6 20:19:12 25° WNW 20:19:12 25° WNW 20:22:24 10° NW
USA 234 3.1 20:13:22 10° ENE 20:19:57 87° NNW 20:26:32 10° W
Cosmos 1140 Rocket 4.4 20:18:09 10° NNW 20:21:42 44° NW 20:21:42 44° NW
MOS 1-B Rocket 4.4 20:22:21 10° NNE 20:28:57 74° WNW 20:29:46 67° WSW
ALOS 2 4.3 20:33:26 31° N 20:33:26 31° N 20:35:46 10° NNW
SL-16 R/B 4.4 20:42:08 17° ENE 20:44:44 22° NE 20:49:12 10° N
Cosmos 1709 Rocket 4.2 20:41:34 10° N 20:46:53 64° NNE 20:46:53 64° NNE
Cosmos 2082 Rocket 4.1 20:43:44 10° NW 20:46:33 19° W 20:46:33 19° W
USA 229 DEB 4.0 20:41:37 10° NW 20:48:40 67° NNE 20:49:59 57° ENE
USA 229 4.0 20:41:43 10° NW 20:48:46 66° NNE 20:50:06 56° ENE
COSMOS 2455 3.5 20:52:44 49° NE 20:52:44 49° NE 20:57:04 10° NE
Cosmos 1943 Rocket 3.6 20:54:15 29° ENE 20:54:15 29° ENE 20:57:06 10° NE
S3M 4.2 20:53:53 63° NNE 20:53:53 63° NNE 20:59:02 10° NNE
NOSS 3-4 (A) 3.9 20:54:06 52° WNW 20:55:11 60° NNW 21:01:51 10° NE
NOSS 3-4 (C) 3.9 20:54:16 53° WNW 20:55:17 60° NNW 21:01:57 10° NE
NOSS 3-1 (A) 4.1 20:53:50 10° NW 21:00:42 65° NNE 21:02:58 47° E
Cosmos 2297 Rocket 4.1 20:57:35 10° NNW 21:02:18 26° NNE 21:05:21 17° ENE
Cosmos 2297 4.5 21:12:02 49° NNE 21:12:02 49° NNE 21:16:06 10° NE
Cosmos 2315 Rocket 4.4 21:13:48 56° NE 21:13:48 56° NE 21:19:03 10° NNE
CZ-4C R/B 3.1 21:16:51 45° NE 21:16:51 45° NE 21:21:20 10° NE
Cosmos 2369 Rocket 3.5 21:17:31 32° ENE 21:17:31 32° ENE 21:20:44 10° NE
Thor Agena Rocket 4.4 21:12:53 10° NNE 21:16:46 48° N 21:16:46 48° N
ATLAS 2AS CENTAUR R/B 3.4 21:11:59 14° W 21:18:50 60° NNW 21:26:25 10° ENE
Cosmos 2184 Rocket 4.4 21:15:31 10° N 21:21:05 53° NE 21:21:05 53° NE
Cosmos 2278 Rocket 3.5 21:22:33 31° WNW 21:23:40 34° NW 21:28:49 10° NNE
Cosmos 2056 Rocket 4.5 21:43:24 46° N 21:43:24 46° N 21:47:13 10° NNE
NOSS 3-1 (C) 3.9 21:35:01 10° NW 21:41:29 74° W 21:41:29 74° W
Cosmos 2227 Rocket 3.4 21:54:38 10° NNW 21:59:55 38° NE 22:01:46 30° E
Cosmos 1452 Rocket 4.4 22:03:25 45° NE 22:03:25 45° NE 22:07:02 10° NNE
USA 234 3.2 21:56:26 10° E 22:03:00 84° N 22:09:34 10° WNW
Timation 2 Rocket 4.1 21:58:09 10° NW 22:04:09 68° NE 22:04:09 68° NE
Meteor 2-3 Rocket 4.3 22:02:14 10° NNW 22:06:32 54° N 22:06:32 54° N
Cosmos 2219 3.8 22:08:06 10° NNW 22:13:40 52° NE 22:14:03 51° ENE
ADEOS II 4.4 22:12:54 10° NE 22:15:28 14° E 22:16:36 13° E
Cosmos 2154 Rocket 4.1 22:09:27 10° N 22:15:13 74° NNE 22:15:13 74° NNE
Cosmos 2074 Rocket 4.4 22:21:05 10° NNW 22:26:18 54° NW 22:26:18 54° NW
SL-16 R/B 2.6 22:27:13 70° E 22:27:27 70° ENE 22:33:36 10° NNW
Cosmos 2341 Rocket 4.2 22:21:25 10° N 22:27:45 62° ENE 22:28:12 61° E
Cosmos 968 Rocket 4.2 22:24:09 10° NNW 22:28:23 52° N 22:28:23 52° N
Cosmos 1943 Rocket 2.9 22:35:46 46° NW 22:35:46 46° NW 22:40:58 10° NNE
COSMOS 2455 4.0 22:35:52 32° WNW 22:37:34 38° NNW 22:43:12 10° NE
Cosmos 1656 Rocket 3.9 22:40:20 63° NNE 22:40:20 63° NNE 22:45:02 10° NNE
CZ-2D R/B 3.1 22:34:41 10° NNE 22:39:26 39° E 22:39:26 39° E
USA 229 4.5 22:32:49 10° NW 22:37:28 40° WNW 22:37:28 40° WNW
ATLAS 5 CENTAUR R/B 3.7 22:44:53 21° E 22:44:53 21° E 22:47:01 10° ENE
Cosmos 2297 Rocket 2.3 22:41:38 10° NNW 22:47:05 71° NNE 22:47:05 71° NNE
NOSS 3-1 (A) 4.2 22:44:45 10° NW 22:50:19 51° W 22:50:19 51° W
Resurs 1-4 Rocket 2.7 22:48:56 10° NNE 22:53:50 49° E 22:53:50 49° E
SL-19 R/B 4.3 22:51:40 10° NNE 22:56:20 65° ENE 22:56:20 65° ENE
Nadezhda 1 Rocket 3.8 22:58:04 80° NW 22:58:04 80° NW 23:04:03 10° N
Cosmos 2369 Rocket 2.8 22:59:18 46° NW 22:59:26 46° NW 23:04:54 10° NNE
Cosmos 1354 Rocket 4.3 22:55:12 10° NNW 23:00:17 65° NE 23:00:17 65° NE
Gbstr 26 Del rocket 4.4 23:02:21 65° S 23:02:46 66° S 23:10:33 10° E
CZ-4C R/B 3.2 23:02:00 36° WNW 23:03:58 47° NNW 23:10:41 10° ENE
NOSS 2-2 (E) 4.4 23:00:49 10° NW 23:05:45 70° NE 23:12:37 10° ESE
USA 267 4.5 23:01:55 10° ENE 23:07:17 26° SE 23:07:36 26° SE
ATLAS 2AS CENTAUR R/B 3.8 23:03:30 10° WNW 23:11:07 48° N 23:18:18 10° ENE
SJ 16-02 4.3 23:08:35 10° N 23:11:19 16° NE 23:14:03 10° ENE
Cosmos 1503 Rocket 4.3 23:08:38 10° NNW 23:12:55 61° NNW 23:12:55 61° NNW
NOSS 2-2 (D) 4.4 23:09:36 12° NW 23:14:10 69° NNE 23:20:52 10° ESE
Cosmos 2263 Rocket 4.0 23:12:32 10° NNW 23:17:30 31° NE 23:22:29 10° E
Helios 1B rocket 4.0 23:16:18 10° N 23:18:47 30° NNW 23:18:47 30° NNW
Cosmos 405 Rocket 4.1 23:16:42 10° N 23:19:57 39° NE 23:19:57 39° NE
IRAS Rocket 4.2 23:22:14 69° WNW 23:22:14 69° WNW 23:27:25 10° NNW
ATLAS CENTAUR R/B 4.3 23:07:30 18° WSW 23:23:01 88° NNW 23:30:00 10° ENE
Cosmos 1818 4.3 23:24:54 41° SE 23:24:56 41° ESE 23:30:02 10° NE
BREEZE-M DEB (TANK) 4.5 23:26:52 46° SSE 23:26:52 46° SSE 23:40:00 10° E
SL-8 Rocket 3.8 23:20:50 10° NNW 23:27:09 76° W 23:27:37 72° SW
Cosmos 2221 3.3 23:29:14 47° N 23:29:14 47° N 23:32:24 10° N
COBE Rocket 4.5 23:31:38 48° NW 23:31:38 48° NW 23:35:35 10° NNW
Cosmos 2218 Rocket 3.9 23:31:56 10° NNW 23:38:21 75° W 23:39:21 62° SSW
Meteor 2-2 Rocket 4.1 23:40:08 73° SW 23:40:38 80° WNW 23:46:30 10° NNE
Cosmos 2366 rocket 3.9 23:34:39 10° NNW 23:40:56 75° W 23:41:56 62° SSW
Cosmos 1842 Rocket 4.4 23:43:34 44° NNW 23:43:34 44° NNW 23:47:05 10° N
Sich 1 3.7 23:38:51 10° NNW 23:42:00 48° NNW 23:42:00 48° NNW
Cosmos 2227 Rocket 2.3 23:38:44 10° NW 23:43:29 56° WNW 23:43:29 56° WNW
USA 234 3.1 23:39:44 10° SE 23:46:14 66° SSW 23:50:26 24° WNW
Cosmos 1777 Rocket 4.3 23:41:05 10° NNW 23:46:20 66° ENE 23:51:32 10° SE
Cosmos 292 Rocket 4.0 23:48:09 59° NW 23:48:09 59° NW 23:52:41 10° NNE
Cosmos 1656 4.3 23:49:11 40° SSE 23:50:26 47° ESE 23:55:43 10° NE
Meteor 1-20 Rocket 4.5 23:45:31 10° N 23:51:00 64° ENE 23:54:39 21° SSE
Cosmos 1992 Rocket 4.2 23:50:18 55° SSE 23:51:05 63° ESE 23:56:16 10° NNE
Lacrosse 5 3.7 23:53:36 19° SE 23:54:20 19° SE 23:57:53 10° E
